New Delhi, India

7:21 AM IST on July 21, 2017 (GMT +0530)
Indira Gandhi International

Weather History for VIDP - July, 2013

Change the Weather History Date:

Sunday, July 28, 2013

  Actual Average Record
Temperature  
Mean Temperature 88 °F -  
Max Temperature 96 °F 91 °F 104 °F (2002)
Min Temperature 80 °F 79 °F 32 °F (2003)
Cooling Degree Days 23    
Growing Degree Days 38 (Base 50)    
Moisture  
Dew Point 80 °F    
Average Humidity 77    
Maximum Humidity 100    
Minimum Humidity 56    
Precipitation  
Precipitation 0.00 in - - ()
Sea Level Pressure  
Sea Level Pressure 29.52 in    
Wind  
Wind Speed 2 mph ()    
Max Wind Speed 7 mph    
Max Gust Speed -    
Visibility 1.5 miles    
Events Fog    
Averages and records for this station are not official NWS values.
T = Trace of Precipitation, MM = Missing Value Source: Averaged Metar Reports

Daily Weather History Graph

Daily Weather History Graph

Search for Another Location

Airport or City:

Trip Planner

Search our weather history database for the weather conditions in past years. The results will help you decide how hot, cold, wet, or windy it might be!

Date:

Astronomy

Jul. 28, 2013 Rise Set
Actual Time 5:40 AM IST 7:14 PM IST
Civil Twilight 5:15 AM IST 7:40 PM IST
Nautical Twilight 4:44 AM IST 8:11 PM IST
Astronomical Twilight 4:11 AM IST 8:43 PM IST
Moon 10:58 PM IST (7/28) 11:18 AM IST (7/28)
Length of Visible Light 14h 25m
Length of Day
13h 34m
Waning Gibbous, 65% of the Moon is Illuminated
Jul 28
Waning Gibbous
Jul 29
Last Quarter
Aug 7
New
Aug 14
First Quarter
Aug 21
Full

Hourly Weather History & Observations

Time (IST) Temp. Heat Index Dew Point Humidity Pressure Visibility Wind Dir Wind Speed Gust Speed Precip Events Conditions
12:00 AM 82.4 °F 96.1 °F 82.4 °F 100% 29.53 in 0.9 mi Calm Calm - N/A   Scattered Clouds
12:30 AM 82.4 °F 96.1 °F 82.4 °F 100% 29.53 in 0.9 mi Calm Calm - N/A   Scattered Clouds
1:00 AM 82.4 °F 96.1 °F 82.4 °F 100% 29.53 in 0.9 mi Calm Calm - N/A   Scattered Clouds
1:30 AM 82.4 °F 96.1 °F 82.4 °F 100% 29.53 in 0.9 mi Calm Calm - N/A   Scattered Clouds
2:00 AM 82.4 °F 96.1 °F 82.4 °F 100% 29.53 in 0.9 mi Calm Calm - N/A   Scattered Clouds
2:30 AM 82.4 °F 96.1 °F 82.4 °F 100% 29.53 in 0.9 mi Calm Calm - N/A   Scattered Clouds
3:00 AM 82.4 °F 96.1 °F 82.4 °F 100% 29.53 in 0.9 mi Calm Calm - N/A   Scattered Clouds
3:30 AM 80.6 °F 89.3 °F 80.6 °F 100% 29.53 in 0.9 mi Calm Calm - N/A   Scattered Clouds
4:00 AM 80.6 °F 89.3 °F 80.6 °F 100% 29.53 in 0.7 mi Calm Calm - N/A   Scattered Clouds
4:30 AM 80.6 °F 89.3 °F 80.6 °F 100% 29.53 in 0.7 mi Calm Calm - N/A   Scattered Clouds
5:00 AM 82.4 °F 96.1 °F 82.4 °F 100% 29.53 in 0.7 mi Calm Calm - N/A   Scattered Clouds
5:30 AM 82.4 °F 96.1 °F 82.4 °F 100% 29.53 in 0.7 mi Calm Calm - N/A   Scattered Clouds
6:00 AM 82.4 °F 96.1 °F 82.4 °F 100% 29.53 in 0.6 mi Calm Calm - N/A   Scattered Clouds
6:30 AM 82.4 °F 96.1 °F 82.4 °F 100% 29.53 in 0.6 mi Calm Calm - N/A Fog Shallow Fog
7:00 AM 82.4 °F 96.1 °F 82.4 °F 100% 29.53 in 0.6 mi SW 3.5 mph - N/A Fog Shallow Fog
7:30 AM 82.4 °F 96.1 °F 82.4 °F 100% 29.53 in 0.6 mi West 5.8 mph - N/A   Scattered Clouds
8:00 AM 84.2 °F 98.3 °F 80.6 °F 89% 29.53 in 0.9 mi West 6.9 mph - N/A   Scattered Clouds
9:00 AM 86.0 °F 101.9 °F 80.6 °F 84% 29.53 in 1.3 mi West 4.6 mph - N/A   Scattered Clouds
9:30 AM 86.0 °F 101.9 °F 80.6 °F 84% 29.56 in 1.6 mi WSW 4.6 mph - N/A   Scattered Clouds
10:00 AM 87.8 °F 104.9 °F 80.6 °F 79% 29.56 in 1.7 mi WSW 4.6 mph - N/A   Scattered Clouds
11:00 AM 89.6 °F 108.2 °F 80.6 °F 75% 29.56 in 1.9 mi West 3.5 mph - N/A   Haze
11:30 AM 91.4 °F 111.0 °F 80.6 °F 71% 29.56 in 1.9 mi SW 3.5 mph - N/A   Haze
12:00 PM 91.4 °F 111.0 °F 80.6 °F 71% 29.56 in 1.9 mi West 4.6 mph - N/A   Haze
12:30 PM 91.4 °F 107.2 °F 78.8 °F 66% 29.53 in 1.9 mi West 4.6 mph - N/A   Haze
1:00 PM 93.2 °F 107.2 °F 77.0 °F 59% 29.53 in 1.9 mi SW 3.5 mph - N/A   Haze
1:30 PM 93.2 °F 107.2 °F 77.0 °F 59% 29.53 in 2.2 mi South 4.6 mph - N/A   Haze
2:00 PM 93.2 °F 107.2 °F 77.0 °F 59% 29.53 in 2.2 mi West 2.3 mph - N/A   Haze
2:30 PM 95.0 °F 109.7 °F 77.0 °F 56% 29.53 in 2.2 mi SSW 3.5 mph - N/A   Haze
3:00 PM 95.0 °F 109.7 °F 77.0 °F 56% 29.50 in 2.2 mi South 3.5 mph - N/A   Haze
3:30 PM 95.0 °F 109.7 °F 77.0 °F 56% 29.50 in 2.2 mi Calm Calm - N/A   Haze
4:00 PM 95.0 °F 109.7 °F 77.0 °F 56% 29.50 in 2.2 mi Calm Calm - N/A   Haze
4:30 PM 96.8 °F 114.8 °F 78.8 °F 56% 29.47 in 2.2 mi Calm Calm - N/A   Haze
5:00 PM 96.8 °F 114.8 °F 78.8 °F 56% 29.47 in 2.2 mi Calm Calm - N/A   Haze
5:30 PM 96.8 °F 114.8 °F 78.8 °F 56% 29.47 in 2.2 mi Calm Calm - N/A   Haze
6:00 PM 95.0 °F 109.7 °F 77.0 °F 56% 29.47 in 2.2 mi Calm Calm - N/A   Haze
6:30 PM 95.0 °F 109.7 °F 77.0 °F 56% 29.47 in 2.2 mi Calm Calm - N/A   Haze
7:00 PM 93.2 °F 107.2 °F 77.0 °F 59% 29.47 in 2.2 mi SSE 4.6 mph - N/A   Haze
7:30 PM 93.2 °F 107.2 °F 77.0 °F 59% 29.47 in 2.2 mi SSE 4.6 mph - N/A   Haze
8:00 PM 91.4 °F 105.1 °F 77.0 °F 63% 29.50 in - SSE 4.6 mph - N/A   Haze
8:30 PM 91.4 °F 105.1 °F 77.0 °F 63% 29.50 in - SSE 5.8 mph - N/A   Haze
9:00 PM 91.4 °F 107.2 °F 78.8 °F 66% 29.50 in 1.9 mi SSE 4.6 mph - N/A   Haze
9:30 PM 91.4 °F 107.2 °F 78.8 °F 66% 29.53 in 1.9 mi SSE 6.9 mph - N/A   Haze
10:00 PM 91.4 °F 107.2 °F 78.8 °F 66% 29.53 in 1.9 mi SE 6.9 mph - N/A   Haze
10:30 PM 89.6 °F 104.7 °F 78.8 °F 70% 29.53 in 1.9 mi SE 6.9 mph - N/A   Haze
11:00 PM 89.6 °F 104.7 °F 78.8 °F 70% 29.53 in 1.9 mi SSE 5.8 mph - N/A   Haze
11:30 PM 89.6 °F 104.7 °F 78.8 °F 70% 29.56 in 1.9 mi SSE 5.8 mph - N/A   Haze